PROGRESS-MS 28 (60450 NORAD) Tracking and Keplerian Element Data

This shows tracking and keplerian element data for the satellite.

Feedback or suggestion? Click here.




ElementValue
Catalog60450
NamePROGRESS-MS 28
Epoch Orbit905
Epoch Day286.82176872
Epoch Year2024
RAAN92.7424
Inclination51.638
Eccentricity0.0009179
Argument of Perigee63.7262
Mean Anonmoly296.4669
Mean Motion15.49763544
Decay Rate0.00028824
L11 60450U 24145A 24286.82176872 .00028824 00000+0 51475-3 0 9992
L22 60450 51.6380 92.7424 0009179 63.7262 296.4669 15.49763544 9054



Live tracking and technical data element details for PROGRESS-MS 28 (NORAD 60450). PROGRESS-MS 28 can be tracked NOW for your location showing map with azimuth and elevation plus other details from your city location.







IsCatalogInMostPopularTable: catalog: 60450, numindb: 5
Update: records affected: 1



GetName: 60450 PROGRESS-MS 28

Hit Count: updated at: Tue, 03 Dec 2024 03:33:20 GMT